Regional Weather Roundup
Issued by NWS

Home | Current Version | Previous Version | Graphics & Text | Print | Product List | Glossary On
Versions: 1 2 3 4 5 6 7 8 9 10 11 12 13 14 15 16 17 18 19 20 21 22 23 24 25 26 27 28 29 30 31 32 33 34 35 36 37 38 39 40 41 42 43 44 45 46 47 48 49 50
027
ASUS43 KOAX 240910
RWRNE

WEATHER ROUNDUP FOR NEBRASKA
NATIONAL WEATHER SERVICE OMAHA NE
400 AM CDT SUN JUL 24 2016

NOTES: SATELLITE DATA IS BEING USED TO AUGMENT CLOUD COVER ABOVE
       12000 FEET.
       "FAIR" INDICATES FEW OR NO CLOUDS BELOW 12,000 FEET WITH NO
       SIGNIFICANT WEATHER AND/OR OBSTRUCTIONS TO VISIBILITY.

  * THESE STATIONS DO NOT REPORT WEATHER SUCH AS RAIN...SNOW OR FOG.

NEZ001>004-019>022-054>056-241000-
NEBRASKA PANHANDLE

CITY           SKY/WX    TMP DP  RH WIND       PRES   REMARKS
SCOTTSBLUFF    CLEAR     66  56  70 SE3       30.08R
ALLIANCE       CLEAR     61  57  87 N6        30.09S
CHADRON        CLEAR     61  51  70 NW3       30.07S
KIMBALL        CLEAR     65  54  66 NW8       30.13R
SIDNEY         CLEAR     65  54  67 E6        30.08S
$$

NEZ057>060-069>072-079>082-241000-
SOUTHWEST NEBRASKA

CITY           SKY/WX    TMP DP  RH WIND       PRES   REMARKS
NORTH PLATTE   PTCLDY    70  58  65 NE5       29.99F
IMPERIAL       CLOUDY    75  56  51 E12       30.00S
LEXINGTON      PTCLDY    72  61  68 NE9       29.96S
MCCOOK         CLOUDY    73  62  68 NE7       29.97R
OGALLALA       CLOUDY    76  56  50 NE10      30.02F
$$

NEZ005>010-023>029-035>040-094-241000-
NORTH CENTRAL NEBRASKA

CITY           SKY/WX    TMP DP  RH WIND       PRES   REMARKS
VALENTINE      CLOUDY    62  58  86 W6        30.02R
AINSWORTH      CLOUDY    67  60  76 NW3       30.01S
BROKEN BOW     PTCLDY    67  61  81 N5        29.98S
O`NEILL        PTCLDY    66  64  91 CALM      29.97S
ORD            CLEAR     71  63  75 VRB3      29.94F
THEDFORD       CLOUDY    67  58  74 CALM      30.03F
$$

NEZ041-046>049-061>064-073>077-083>087-241000-
SOUTH CENTRAL NEBRASKA

CITY           SKY/WX    TMP DP  RH WIND       PRES   REMARKS
GRAND ISLAND   CLEAR     72  69  90 NE7       29.92S
AURORA         CLEAR     74  72  92 NE7       29.91R
HASTINGS       CLOUDY    75  70  84 NE10      29.92S
HEBRON         PTCLDY    71  68  92 CALM      29.87S
HOLDREGE       CLEAR     71  65  83 N8        29.94R
KEARNEY *      PTCLDY    72  64  78 N9        29.94S
YORK           CLEAR     75  72  88 N13       29.90S
$$

NEZ011>018-030>034-042>045-241000-
NORTHEAST NEBRASKA

CITY           SKY/WX    TMP DP  RH WIND       PRES   REMARKS
NORFOLK        CLEAR     73  64  73 N9        29.92R
ALBION         CLEAR     72  65  78 N6        29.93R
BLAIR          CLEAR     78  73  84 W7        29.85R
FREMONT        CLEAR     78  72  80 N5        29.87R
TEKAMAH        CLEAR     79  73  82 N16       29.85R
WAYNE          CLEAR     73  67  83 N8        29.91R
$$

NEZ050>053-065>068-078-088>093-241000-
SOUTHEAST NEBRASKA

CITY           SKY/WX    TMP DP  RH WIND       PRES   REMARKS
LINCOLN        CLEAR     75  71  87 N6        29.86R
OMAHA EPPLEY   CLEAR     80  74  81 SE5       29.83S
BEATRICE       CLOUDY    75  70  84 S9        29.86S
FALLS CITY     CLOUDY    79  72  79 W5        29.82S
NEBRASKA CITY  CLEAR     75  71  87 W5        29.85R
PLATTSMOUTH    CLEAR     75  73  93 S5        29.84F
$$

NEZ044-045-051>053-067-241000-
OMAHA AREA

CITY           SKY/WX    TMP DP  RH WIND       PRES   REMARKS
OMAHA EPPLEY   CLEAR     80  74  81 SE5       29.83S
BLAIR          CLEAR     78  73  84 W7        29.85R
FREMONT        CLEAR     78  72  80 N5        29.87R
MILLARD        CLEAR     76  74  92 CALM      29.84R
OFFUTT AFB     CLEAR     74  74 100 SE2       29.83S
PLATTSMOUTH    CLEAR     75  73  93 S5        29.84F
WAHOO          FAIR      78  74  88 N10G17    29.85S
$$




USA.gov is the U.S. government's official web portal to all federal, state and local government web resources and services.